Location: Baumgarten
(49.0970°N, 12.7493°E)
Time: 08:25:41
(UTC+00:00)

In-Cosmos 22 Rocket - Pass Details

Date: 05 July 2020
Orbit: 791 x 887 km, 81.2° (Epoch: 05 August)

Event Time Altitude Azimuth Distance (km) Brightness Sun altitude
Exits shadow 21:29:51 20° 177° (S) 1,775 5.3 -14.6°
Maximum altitude 21:33:35 69° 98° (E) 846 4.1 -14.8°
Drops below altitude 10° 21:38:53 10° 16° (NNE) 2,375 7.3 -15.2°
Sets 21:41:17 0° 14° (NNE) 3,315 8.2 -15.3°
